Weather History for KOWA - April, 2013

Change the Weather History Date:

Monday, April 1, 2013

  Actual Average Record
Temperature  
Mean Temperature 30 °F -  
Max Temperature 37 °F 48 °F 81 °F (1986)
Min Temperature 23 °F 27 °F 8 °F (1975)
Degree Days  
Heating Degree Days 35    
Moisture  
Dew Point 15 °F    
Average Humidity 55    
Maximum Humidity 68    
Minimum Humidity 36    
Precipitation  
Precipitation 0.00 in - - ()
Sea Level Pressure  
Sea Level Pressure 30.20 in    
Wind  
Wind Speed 16 mph (NW)    
Max Wind Speed 22 mph    
Max Gust Speed 28 mph    
Visibility 10 miles    
Events      
Averages and records for this station are not official NWS values.
T = Trace of Precipitation, MM = Missing Value Source: NWS Daily Summary

Daily Weather History Graph

Daily Weather History Graph

Search for Another Location

Airport or City:

Trip Planner

Search our weather history database for the weather conditions in past years. The results will help you decide how hot, cold, wet, or windy it might be!

Date:

Astronomy

Apr. 01, 2013 Rise Set
Actual Time 6:53 AM CDT 7:40 PM CDT
Civil Twilight 6:24 AM CDT 8:09 PM CDT
Nautical Twilight 5:49 AM CDT 8:44 PM CDT
Astronomical Twilight 5:13 AM CDT 9:20 PM CDT
Moon 12:58 AM CDT (4/1) 10:31 AM CDT (4/1)
Length of Visible Light 13h 45m
Length of Day
12h 46m
Waning Gibbous, 67% of the Moon is Illuminated
Apr 1
Waning Gibbous
Apr 2
Last Quarter
Apr 10
New
Apr 18
First Quarter
Apr 25
Full

Hourly Weather History & Observations

Time (CDT) Temp. Windchill Dew Point Humidity Pressure Visibility Wind Dir Wind Speed Gust Speed Precip Events Conditions
12:14 AM 28.4 °F 14.7 °F 15.8 °F 59% 30.08 in 10.0 mi NW 21.9 mph 25.3 mph N/A   Clear
12:34 AM 28.4 °F 17.0 °F 15.8 °F 59% 30.08 in 10.0 mi NW 15.0 mph 27.6 mph N/A   Clear
12:53 AM 28.4 °F 15.8 °F 15.8 °F 59% 30.09 in 10.0 mi NW 18.4 mph - N/A   Clear
1:13 AM 26.6 °F 13.8 °F 15.8 °F 64% 30.09 in 10.0 mi NW 17.3 mph - N/A   Clear
1:33 AM 26.6 °F 13.8 °F 15.8 °F 64% 30.10 in 10.0 mi NW 17.3 mph 20.7 mph N/A   Clear
1:54 AM 26.6 °F 14.7 °F 15.8 °F 64% 30.10 in 10.0 mi NW 15.0 mph - N/A   Clear
2:14 AM 26.6 °F 15.7 °F 15.8 °F 64% 30.11 in 10.0 mi NW 12.7 mph 16.1 mph N/A   Clear
2:33 AM 26.6 °F 13.8 °F 15.8 °F 64% 30.11 in 10.0 mi NW 17.3 mph - N/A   Clear
2:54 AM 26.6 °F 16.2 °F 15.8 °F 64% 30.12 in 10.0 mi NW 11.5 mph 19.6 mph N/A   Clear
3:14 AM 24.8 °F 11.5 °F 14.0 °F 64% 30.12 in 10.0 mi NW 17.3 mph - N/A   Clear
3:33 AM 24.8 °F 13.4 °F 14.0 °F 64% 30.12 in 10.0 mi NW 12.7 mph - N/A   Clear
3:54 AM 24.8 °F 12.9 °F 14.0 °F 64% 30.13 in 10.0 mi NW 13.8 mph - N/A   Clear
4:13 AM 24.8 °F 12.4 °F 14.0 °F 64% 30.13 in 10.0 mi NW 15.0 mph - N/A   Clear
4:33 AM 24.8 °F 12.4 °F 14.0 °F 64% 30.14 in 10.0 mi NW 15.0 mph - N/A   Clear
4:54 AM 24.8 °F 11.9 °F 14.0 °F 64% 30.14 in 10.0 mi NW 16.1 mph - N/A   Clear
5:14 AM 24.8 °F 12.4 °F 14.0 °F 64% 30.15 in 10.0 mi NW 15.0 mph - N/A   Clear
5:33 AM 24.8 °F 12.9 °F 14.0 °F 64% 30.16 in 10.0 mi NW 13.8 mph - N/A   Clear
5:53 AM 24.8 °F 13.4 °F 14.0 °F 64% 30.16 in 10.0 mi NW 12.7 mph - N/A   Clear
6:14 AM 24.8 °F 11.9 °F 12.2 °F 59% 30.17 in 10.0 mi WNW 16.1 mph - N/A   Clear
6:33 AM 23.0 °F 10.1 °F 14.0 °F 68% 30.18 in 10.0 mi NW 15.0 mph - N/A   Clear
6:53 AM 23.0 °F 10.1 °F 14.0 °F 68% 30.19 in 10.0 mi WNW 15.0 mph - N/A   Clear
7:13 AM 23.0 °F 8.7 °F 12.2 °F 63% 30.19 in 10.0 mi NW 18.4 mph - N/A   Clear
7:33 AM 23.0 °F 9.6 °F 12.2 °F 63% 30.20 in 10.0 mi NW 16.1 mph - N/A   Clear
7:53 AM 24.8 °F 12.4 °F 12.2 °F 59% 30.21 in 10.0 mi NW 15.0 mph - N/A   Clear
8:13 AM 24.8 °F 12.4 °F 12.2 °F 59% 30.21 in 10.0 mi NW 15.0 mph - N/A   Clear
8:33 AM 24.8 °F 11.9 °F 12.2 °F 59% 30.22 in 10.0 mi NW 16.1 mph - N/A   Clear
8:54 AM 24.8 °F 12.4 °F 12.2 °F 59% 30.22 in 10.0 mi NW 15.0 mph - N/A   Clear
9:13 AM 24.8 °F 11.9 °F 12.2 °F 59% 30.22 in 10.0 mi NW 16.1 mph - N/A   Clear
9:34 AM 26.6 °F 13.4 °F 12.2 °F 55% 30.22 in 10.0 mi NW 18.4 mph - N/A   Clear
9:53 AM 26.6 °F 13.4 °F 12.2 °F 55% 30.22 in 10.0 mi NW 18.4 mph - N/A   Clear
10:13 AM 28.4 °F 17.0 °F 12.2 °F 51% 30.23 in 10.0 mi WNW 15.0 mph - N/A   Clear
10:34 AM 28.4 °F 16.2 °F 14.0 °F 55% 30.24 in 10.0 mi WNW 17.3 mph - N/A   Scattered Clouds
10:53 AM 28.4 °F 16.6 °F 14.0 °F 55% 30.24 in 10.0 mi NW 16.1 mph - N/A   Clear
11:13 AM 28.4 °F 17.0 °F 12.2 °F 51% 30.24 in 10.0 mi NW 15.0 mph 21.9 mph N/A   Clear
11:33 AM 28.4 °F 16.2 °F 14.0 °F 55% 30.25 in 10.0 mi NW 17.3 mph 21.9 mph N/A   Clear
11:53 AM 30.2 °F 18.5 °F 14.0 °F 51% 30.25 in 10.0 mi NW 17.3 mph 24.2 mph N/A   Scattered Clouds
12:13 PM 30.2 °F 18.9 °F 15.8 °F 55% 30.25 in 10.0 mi WNW 16.1 mph - N/A   Scattered Clouds
12:33 PM 30.2 °F 19.3 °F 15.8 °F 55% 30.25 in 10.0 mi WNW 15.0 mph 20.7 mph N/A   Scattered Clouds
12:53 PM 32.0 °F 20.5 °F 15.8 °F 51% 30.24 in 10.0 mi WNW 18.4 mph 21.9 mph N/A   Clear
1:13 PM 32.0 °F 21.6 °F 15.8 °F 51% 30.24 in 10.0 mi WNW 15.0 mph 20.7 mph N/A   Clear
1:33 PM 33.8 °F 23.5 °F 15.8 °F 48% 30.24 in 10.0 mi NW 16.1 mph 21.9 mph N/A   Clear
2:13 PM 33.8 °F 23.5 °F 15.8 °F 48% 30.24 in 10.0 mi NW 16.1 mph 20.7 mph N/A   Clear
2:33 PM 35.6 °F 25.9 °F 15.8 °F 44% 30.24 in 10.0 mi NW 16.1 mph 23.0 mph N/A   Scattered Clouds
3:13 PM 35.6 °F 24.5 °F 15.8 °F 44% 30.24 in 10.0 mi WNW 20.7 mph - N/A   Scattered Clouds
3:34 PM 35.6 °F 25.5 °F 15.8 °F 44% 30.24 in 10.0 mi NW 17.3 mph 21.9 mph N/A   Clear
3:53 PM 35.6 °F 25.9 °F 15.8 °F 44% 30.23 in 10.0 mi WNW 16.1 mph 20.7 mph N/A   Clear
4:13 PM 37.4 °F 28.5 °F 15.8 °F 41% 30.23 in 10.0 mi WNW 15.0 mph 18.4 mph N/A   Clear
4:33 PM 37.4 °F 27.2 °F 15.8 °F 41% 30.23 in 10.0 mi WNW 19.6 mph - N/A   Clear
4:53 PM 37.4 °F 28.2 °F 17.6 °F 45% 30.23 in 10.0 mi NW 16.1 mph 20.7 mph N/A   Clear
5:13 PM 37.4 °F 28.5 °F 12.2 °F 36% 30.23 in 10.0 mi NW 15.0 mph - N/A   Clear
5:33 PM 37.4 °F 28.5 °F 15.8 °F 41% 30.23 in 10.0 mi NW 15.0 mph - N/A   Clear
5:53 PM 37.4 °F 28.2 °F 15.8 °F 41% 30.23 in 10.0 mi NW 16.1 mph 20.7 mph N/A   Clear
6:14 PM 37.4 °F 28.5 °F 15.8 °F 41% 30.23 in 10.0 mi WNW 15.0 mph - N/A   Clear
6:33 PM 35.6 °F 26.6 °F 15.8 °F 44% 30.22 in 10.0 mi NW 13.8 mph - N/A   Clear
6:54 PM 35.6 °F 25.9 °F 15.8 °F 44% 30.22 in 10.0 mi NW 16.1 mph 20.7 mph N/A   Clear
7:14 PM 35.6 °F 26.2 °F 17.6 °F 48% 30.22 in 10.0 mi NW 15.0 mph - N/A   Clear
7:33 PM 35.6 °F 26.6 °F 15.8 °F 44% 30.22 in 10.0 mi WNW 13.8 mph - N/A   Clear
7:53 PM 33.8 °F 23.9 °F 17.6 °F 52% 30.22 in 10.0 mi WNW 15.0 mph - N/A   Clear
8:13 PM 33.8 °F 26.4 °F 19.4 °F 56% 30.22 in 10.0 mi WNW 9.2 mph - N/A   Clear
8:33 PM 33.8 °F 26.4 °F 19.4 °F 56% 30.22 in 10.0 mi WNW 9.2 mph - N/A   Clear
8:53 PM 33.8 °F 25.8 °F 17.6 °F 52% 30.23 in 10.0 mi WNW 10.4 mph - N/A   Clear
9:14 PM 33.8 °F 26.4 °F 19.4 °F 56% 30.24 in 10.0 mi WNW 9.2 mph - N/A   Clear
9:35 PM 33.8 °F 25.3 °F 17.6 °F 52% 30.24 in 10.0 mi WNW 11.5 mph - N/A   Clear
9:53 PM 33.8 °F 26.4 °F 17.6 °F 52% 30.25 in 10.0 mi West 9.2 mph - N/A   Clear
10:14 PM 32.0 °F 24.8 °F 17.6 °F 55% 30.25 in 10.0 mi West 8.1 mph - N/A   Clear
10:33 PM 32.0 °F 24.2 °F 17.6 °F 55% 30.25 in 10.0 mi West 9.2 mph - N/A   Clear
10:53 PM 32.0 °F 24.2 °F 17.6 °F 55% 30.25 in 10.0 mi WNW 9.2 mph - N/A   Clear
11:13 PM 30.2 °F 22.6 °F 17.6 °F 60% 30.25 in 10.0 mi West 8.1 mph - N/A   Clear
11:33 PM 30.2 °F 21.3 °F 19.4 °F 64% 30.25 in 10.0 mi West 10.4 mph - N/A   Clear
11:53 PM 30.2 °F 21.3 °F 17.6 °F 60% 30.25 in 10.0 mi West 10.4 mph - N/A   Clear